Tracking 31027 objects as of 19-Jul-2025
HD Live streaming from Space Station
objects crossing your sky now

STARLINK-32181

Track STARLINK-32181 now!
10-day predictions
STARLINK-32181 is classified as:


NORAD ID: 60349
Int'l Code: 2024-136W
Perigee: 482.0 km
Apogee: 483.0 km
Inclination: 53.2 °
Period: 94.1 minutes
Semi major axis: 6853 km
RCS: Unknown
Launch date: August 2, 2024
Source: United States (US)
Launch site: AIR FORCE EASTERN TEST RANGE (AFETR)
Your satellite tracking list
STARLINK-1578
Track 1 satellite(s)




NASA's NSSDC Master Catalog

Two Line Element Set (TLE):
1 60349U 24136W   25199.69628420  .00005678  00000-0  20389-3 0  9992
2 60349  53.1598  82.2166 0000734  94.5162 265.5923 15.30165274 53847
Source of the keplerian elements: AFSPC